IU1DOF-3 Weather Reports


Display with metric or nautical units.
time (UTC)temp
F
wind
direction
speed
MPH
gust
MPH
rain 1hr
in
rain 24hr
in
rain mn
in
humidity
%
barometer
mb
20260903200149 66 291 2.0 2.0 0.00 0.00 0.00 81 1020.0
20260903195140 66 290 1.0 2.0 0.00 0.00 0.00 81 1019.9
20260903194117 66 317 1.0 2.0 0.00 0.00 0.00 82 1019.9
20260903193053 67 290 2.0 2.0 0.00 0.00 0.00 80 1019.9
20260903192039 67 289 2.0 3.0 0.00 0.00 0.00 80 1019.8
20260903191022 67 291 2.0 2.0 0.00 0.00 0.00 79 1019.7
20260903185958 68 291 2.0 2.0 0.00 0.00 0.00 79 1019.8
20260903184940 68 291 2.0 2.0 0.00 0.00 0.00 79 1019.5
20260903183925 68 290 2.0 3.0 0.00 0.00 0.00 79 1019.3
20260903182902 68 288 2.0 2.0 0.00 0.00 0.00 78 1019.1
20260903181837 69 302 2.0 2.0 0.00 0.00 0.00 78 1018.8
20260903180813 69 290 1.0 2.0 0.00 0.00 0.00 80 1018.8
20260903175749 70 298 2.0 3.0 0.00 0.00 0.00 78 1018.6
20260903174740 70 307 2.0 3.0 0.00 0.00 0.00 76 1018.6
20260903173717 71 290 0.0 0.0 0.00 0.00 0.00 79 1018.3
20260903172654 72 300 3.0 4.0 0.00 0.00 0.00 75 1018.2
20260903171645 72 302 4.0 4.0 0.00 0.00 0.00 74 1018.4
20260903170540 73 307 3.0 3.0 0.00 0.00 0.00 75 1018.1
20260903165525 75 303 3.0 3.0 0.00 0.00 0.00 74 1018.4
20260903164502 75 308 2.0 3.0 0.00 0.00 0.00 72 1018.3
20260903163438 76 312 2.0 3.0 0.00 0.00 0.00 70 1018.1
20260903162414 75 309 3.0 3.0 0.00 0.00 0.00 71 1018.2
20260903161350 76 303 2.0 3.0 0.00 0.00 0.00 73 1018.1
20260903160341 76 310 3.0 4.0 0.00 0.00 0.00 71 1018.0
20260903155317 76 296 2.0 3.0 0.00 0.00 0.00 72 1018.0
20260903154257 77 304 2.0 3.0 0.00 0.00 0.00 68 1018.0
20260903153240 79 295 2.0 3.0 0.00 0.00 0.00 64 1018.3
20260903152221 81 269 2.0 3.0 0.00 0.00 0.00 54 1018.4
20260903151157 82 277 3.0 4.0 0.00 0.00 0.00 51 1018.5
20260903150134 82 262 0.0 1.0 0.00 0.00 0.00 51 1018.6
20260903145125 82 30 0.0 1.0 0.00 0.00 0.00 55 1018.6
20260903144103 83 279 1.0 2.0 0.00 0.00 0.00 53 1018.7
20260903143038 83 246 1.0 4.0 0.00 0.00 0.00 52 1018.5
20260903142030 83 291 1.0 2.0 0.00 0.00 0.00 53 1018.5
20260903141007 83 281 0.0 1.0 0.00 0.00 0.00 57 1018.5
20260903135957 83 274 0.0 1.0 0.00 0.00 0.00 56 1018.5
20260903134949 83 273 0.0 1.0 0.00 0.00 0.00 54 1018.6
20260903133941 83 323 0.0 1.0 0.00 0.00 0.00 56 1018.7
20260903132933 83 270 0.0 0.0 0.00 0.00 0.00 55 1018.5
20260903131926 83 256 1.0 2.0 0.00 0.00 0.00 55 1018.4
20260903130902 84 269 2.0 3.0 0.00 0.00 0.00 54 1018.5
20260903125853 83 264 0.0 1.0 0.00 0.00 0.00 54 1018.4
20260903124840 82 285 1.0 3.0 0.00 0.00 0.00 56 1018.5
20260903123823 82 175 2.0 3.0 0.00 0.00 0.00 51 1018.6
20260903122813 83 267 2.0 4.0 0.00 0.00 0.00 52 1018.4
20260903121750 82 293 0.0 1.0 0.00 0.00 0.00 52 1018.4
20260903120740 81 258 2.0 3.0 0.00 0.00 0.00 54 1018.8
20260903115718 82 283 3.0 4.0 0.00 0.00 0.00 54 1018.9
20260903114654 82 279 1.0 2.0 0.00 0.00 0.00 53 1018.7
20260903113640 81 225 1.0 4.0 0.00 0.00 0.00 57 1019.0
20260903112621 81 260 2.0 4.0 0.00 0.00 0.00 57 1019.0
20260903111613 81 275 0.0 1.0 0.00 0.00 0.00 56 1019.1
20260903110550 81 272 0.0 1.0 0.00 0.00 0.00 63 1019.2
20260903105541 80 273 1.0 2.0 0.00 0.00 0.00 60 1019.3
20260903104519 80 260 0.0 1.0 0.00 0.00 0.00 63 1019.5
20260903103453 80 239 1.0 3.0 0.00 0.00 0.00 62 1019.5
20260903102439 79 272 1.0 4.0 0.00 0.00 0.00 61 1019.8
20260903101422 79 280 0.0 1.0 0.00 0.00 0.00 63 1019.8
20260903100358 79 277 2.0 5.0 0.00 0.00 0.00 62 1020.1
20260903095349 80 263 2.0 4.0 0.00 0.00 0.00 58 1020.0
20260903094341 78 293 0.0 1.0 0.00 0.00 0.00 62 1020.0
20260903093320 79 281 0.0 0.0 0.00 0.00 0.00 56 1020.1
20260903092255 78 281 0.0 0.0 0.00 0.00 0.00 54 1020.1
20260903091240 76 277 0.0 0.0 0.00 0.00 0.00 59 1020.5
20260903090222 75 280 0.0 0.0 0.00 0.00 0.00 56 1020.1
20260903085158 74 278 0.0 0.0 0.00 0.00 0.00 52 1020.2
20260903084140 75 279 0.0 0.0 0.00 0.00 0.00 62 1020.6
20260903083127 76 279 0.0 0.0 0.00 0.00 0.00 60 1020.3
20260903082102 74 270 1.0 2.0 0.00 0.00 0.00 61 1020.2
20260903081053 72 275 0.0 0.0 0.00 0.00 0.00 64 1020.2
20260903080040 72 300 0.0 0.0 0.00 0.00 0.00 65 1020.3
20260903075023 72 300 0.0 0.0 0.00 0.00 0.00 66 1020.2
20260903073959 69 276 0.0 0.0 0.00 0.00 0.00 68 1020.0
20260903072941 71 280 0.0 0.0 0.00 0.00 0.00 69 1020.5
20260903071927 68 299 0.0 0.0 0.00 0.00 0.00 66 1020.3
20260903070903 66 307 0.0 1.0 0.00 0.00 0.00 68 1020.1
20260903065838 67 301 0.0 0.0 0.00 0.00 0.00 68 1020.2
20260903064814 67 300 0.0 0.0 0.00 0.00 0.00 73 1020.5
20260903063750 65 301 0.0 0.0 0.00 0.00 0.00 76 1020.1
20260903062741 62 301 0.0 0.0 0.00 0.00 0.00 81 1020.1
20260903061719 61 302 0.0 0.0 0.00 0.00 0.00 80 1020.0
20260903060656 60 301 0.0 0.0 0.00 0.00 0.00 84 1019.8
20260903055640 59 302 0.0 0.0 0.00 0.00 0.00 87 1019.7
20260903054622 58 302 2.0 2.0 0.00 0.00 0.00 84 1019.7
20260903053559 57 304 1.0 2.0 0.00 0.00 0.00 85 1019.6
20260903052541 57 304 0.0 0.0 0.00 0.00 0.00 87 1019.6
20260903051526 57 304 0.0 0.0 0.00 0.00 0.00 88 1019.5
20260903050502 57 304 0.0 0.0 0.00 0.00 0.00 87 1019.3
20260903045439 57 303 0.0 0.0 0.00 0.00 0.00 87 1019.4
20260903044414 57 304 0.0 0.0 0.00 0.00 0.00 86 1019.2
20260903043351 57 303 0.0 0.0 0.00 0.00 0.00 85 1019.1
20260903042340 57 303 0.0 0.0 0.00 0.00 0.00 87 1019.1
20260903041318 58 303 0.0 0.0 0.00 0.00 0.00 85 1018.9
20260903040254 58 303 2.0 2.0 0.00 0.00 0.00 85 1019.1
20260903035240 58 304 0.0 1.0 0.00 0.00 0.00 85 1019.2
20260903034222 58 303 1.0 2.0 0.00 0.00 0.00 85 1019.2
20260903033158 58 303 1.0 1.0 0.00 0.00 0.00 87 1019.2
20260903032140 58 304 0.0 0.0 0.00 0.00 0.00 88 1019.2
20260903031127 58 304 1.0 1.0 0.00 0.00 0.00 88 1019.2
20260903025041 58 303 0.0 0.0 0.00 0.00 0.00 86 1019.3
20260903024031 58 305 0.0 0.0 0.00 0.00 0.00 87 1019.3
20260903023007 59 302 0.0 1.0 0.00 0.00 0.00 86 1019.2
20260903021943 58 290 1.0 1.0 0.00 0.00 0.00 85 1019.1
20260903020920 58 302 1.0 2.0 0.00 0.00 0.00 85 1019.4
20260903020241 59 303 1.0 1.0 0.00 0.00 0.00 84 1019.4
20260903015231 59 302 0.0 0.0 0.00 0.00 0.00 85 1019.2
20260903014207 59 303 2.0 2.0 0.00 0.00 0.00 84 1019.3
20260903013142 59 303 1.0 2.0 0.00 0.00 0.00 84 1019.3
20260903012134 59 303 0.0 0.0 0.00 0.00 0.00 85 1019.3
20260903011111 59 303 0.0 0.0 0.00 0.00 0.00 86 1019.3
20260903005040 59 302 2.0 3.0 0.00 0.00 0.00 89 1019.4
20260903004030 59 303 0.0 0.0 0.00 0.00 0.00 88 1019.2
20260903003006 59 302 1.0 2.0 0.00 0.00 0.00 88 1019.2
20260903001946 59 302 1.0 1.0 0.00 0.00 0.00 91 1019.3
20260903000934 60 303 0.0 0.0 0.00 0.00 0.00 91 1018.9
20260902235910 60 302 2.0 2.0 0.00 0.00 0.00 91 1018.9
20260902234902 61 303 2.0 3.0 0.00 0.00 0.00 90 1019.1
20260902233838 60 302 2.0 2.0 0.00 0.00 0.00 94 1019.1
20260902232830 61 302 0.0 0.0 0.00 0.00 0.00 93 1019.0
20260902231806 62 304 1.0 1.0 0.00 0.00 0.00 92 1019.1
20260902230758 62 304 1.0 1.0 0.00 0.00 0.00 92 1018.9
20260902225750 62 303 2.0 2.0 0.00 0.00 0.00 94 1018.6
20260902224741 62 304 0.0 0.0 0.00 0.00 0.00 95 1018.8
20260902223718 62 304 0.0 0.0 0.00 0.00 0.00 94 1018.7
20260902222654 62 303 2.0 2.0 0.00 0.00 0.00 94 1018.9
20260902221641 63 303 1.0 2.0 0.00 0.00 0.00 94 1018.8
20260902220622 63 303 1.0 1.0 0.00 0.00 0.00 94 1019.0
20260902215614 63 304 1.0 1.0 0.00 0.00 0.00 93 1018.7
20260902214551 63 303 2.0 2.0 0.00 0.00 0.00 93 1018.9
20260902213541 64 303 2.0 2.0 0.00 0.00 0.00 93 1018.6
20260902212518 64 303 2.0 2.0 0.00 0.00 0.00 92 1018.8
20260902211457 64 304 1.0 2.0 0.00 0.00 0.00 91 1018.9
20260902210440 64 305 1.0 2.0 0.00 0.00 0.00 92 1018.8
20260902205422 64 302 1.0 1.0 0.00 0.00 0.00 92 1018.8
20260902204358 65 303 2.0 2.0 0.00 0.00 0.00 91 1018.6
20260902203340 65 304 1.0 1.0 0.00 0.00 0.00 91 1018.7
20260902202327 65 302 1.0 1.0 0.00 0.00 0.00 90 1018.5
20260902201303 65 303 1.0 1.0 0.00 0.00 0.00 90 1018.4